Year,Month,Day,Hour,Minute,Value (Times are PST for barometer in hPa)
2017,01,16,00,00,1024.96
2017,01,16,00,01,1024.89
2017,01,16,00,02,1024.86
2017,01,16,00,03,1024.86
2017,01,16,00,04,1024.89
2017,01,16,00,05,1024.89
2017,01,16,00,06,1024.89
2017,01,16,00,07,1024.86
2017,01,16,00,08,1024.89
2017,01,16,00,09,1024.86
2017,01,16,00,10,1024.92
2017,01,16,00,11,1024.89
2017,01,16,00,12,1024.89
2017,01,16,00,13,1024.82
2017,01,16,00,14,1024.75
2017,01,16,00,15,1024.62
2017,01,16,00,16,1024.59
2017,01,16,00,17,1024.59
2017,01,16,00,18,1024.52
2017,01,16,00,19,1024.59
2017,01,16,00,20,1024.59
2017,01,16,00,21,1024.55
2017,01,16,00,22,1024.59
2017,01,16,00,23,1024.59
2017,01,16,00,24,1024.69
2017,01,16,00,25,1024.69
2017,01,16,00,26,1024.72
2017,01,16,00,27,1024.76
2017,01,16,00,28,1024.76
2017,01,16,00,29,1024.72
2017,01,16,00,30,1024.79
2017,01,16,00,31,1024.79
2017,01,16,00,32,1024.78
2017,01,16,00,33,1024.72
2017,01,16,00,34,1024.62
2017,01,16,00,35,1024.62
2017,01,16,00,36,1024.52
2017,01,16,00,37,1024.53
2017,01,16,00,38,1024.59
2017,01,16,00,39,1024.63
2017,01,16,00,40,1024.72
2017,01,16,00,41,1024.72
2017,01,16,00,42,1024.68
2017,01,16,00,43,1024.61
2017,01,16,00,44,1024.48
2017,01,16,00,45,1024.42
2017,01,16,00,46,1024.42
2017,01,16,00,47,1024.45
2017,01,16,00,48,1024.43
2017,01,16,00,49,1024.52
2017,01,16,00,50,1024.49
2017,01,16,00,51,1024.54
2017,01,16,00,52,1024.45
2017,01,16,00,53,1024.42
2017,01,16,00,54,1024.45
2017,01,16,00,55,1024.45
2017,01,16,00,56,1024.42
2017,01,16,00,57,1024.48
2017,01,16,00,58,1024.48
2017,01,16,00,59,1024.45
2017,01,16,01,00,1024.42
2017,01,16,01,01,1024.32
2017,01,16,01,02,1024.35
2017,01,16,01,03,1024.32
2017,01,16,01,04,1024.32
2017,01,16,01,05,1024.35
2017,01,16,01,06,1024.38
2017,01,16,01,07,1024.39
2017,01,16,01,08,1024.45
2017,01,16,01,09,1024.48
2017,01,16,01,10,1024.45
2017,01,16,01,11,1024.45
2017,01,16,01,12,1024.42
2017,01,16,01,13,1024.38
2017,01,16,01,14,1024.42
2017,01,16,01,15,1024.38
2017,01,16,01,16,1024.34
2017,01,16,01,17,1024.28
2017,01,16,01,18,1024.26
2017,01,16,01,19,1024.32
2017,01,16,01,20,1024.32
2017,01,16,01,21,1024.38
2017,01,16,01,22,1024.32
2017,01,16,01,23,1024.31
2017,01,16,01,24,1024.25
2017,01,16,01,25,1024.21
2017,01,16,01,26,1024.14
2017,01,16,01,27,1024.05
2017,01,16,01,28,1024.11
2017,01,16,01,29,1024.12
2017,01,16,01,30,1024.19
2017,01,16,01,31,1024.26
2017,01,16,01,32,1024.33
2017,01,16,01,33,1024.41
2017,01,16,01,34,1024.35
2017,01,16,01,35,1024.31
2017,01,16,01,36,1024.24
2017,01,16,01,37,1024.11
2017,01,16,01,38,1024.11
2017,01,16,01,39,1024.11
2017,01,16,01,40,1024.11
2017,01,16,01,41,1024.08
2017,01,16,01,42,1024.04
2017,01,16,01,43,1024.01
2017,01,16,01,44,1023.98
2017,01,16,01,45,1024.01
2017,01,16,01,46,1024.01
2017,01,16,01,47,1024.12
2017,01,16,01,48,1024.25
2017,01,16,01,49,1024.25
2017,01,16,01,50,1024.25
2017,01,16,01,51,1024.38
2017,01,16,01,52,1024.42
2017,01,16,01,53,1024.45
2017,01,16,01,54,1024.48
2017,01,16,01,55,1024.45
2017,01,16,01,56,1024.42
2017,01,16,01,57,1024.42
2017,01,16,01,58,1024.32
2017,01,16,01,59,1024.35
2017,01,16,02,00,1024.28
2017,01,16,02,01,1024.28
2017,01,16,02,02,1024.15
2017,01,16,02,03,1024.04
2017,01,16,02,04,1023.98
2017,01,16,02,05,1023.91
2017,01,16,02,06,1023.84
2017,01,16,02,07,1023.84
2017,01,16,02,08,1023.81
2017,01,16,02,09,1023.80
2017,01,16,02,10,1023.66
2017,01,16,02,11,1023.57
2017,01,16,02,12,1023.60
2017,01,16,02,13,1023.60
2017,01,16,02,14,1023.56
2017,01,16,02,15,1023.50
2017,01,16,02,16,1023.50
2017,01,16,02,17,1023.54
2017,01,16,02,18,1023.57
2017,01,16,02,19,1023.54
2017,01,16,02,20,1023.60
2017,01,16,02,21,1023.64
2017,01,16,02,22,1023.67
2017,01,16,02,23,1023.67
2017,01,16,02,24,1023.67
2017,01,16,02,25,1023.64
2017,01,16,02,26,1023.64
2017,01,16,02,27,1023.65
2017,01,16,02,28,1023.77
2017,01,16,02,29,1023.81
2017,01,16,02,30,1023.77
2017,01,16,02,31,1023.77
2017,01,16,02,32,1023.71
2017,01,16,02,33,1023.70
2017,01,16,02,34,1023.64
2017,01,16,02,35,1023.65
2017,01,16,02,36,1023.71
2017,01,16,02,37,1023.71
2017,01,16,02,38,1023.74
2017,01,16,02,39,1023.71
2017,01,16,02,40,1023.74
2017,01,16,02,41,1023.67
2017,01,16,02,42,1023.60
2017,01,16,02,43,1023.57
2017,01,16,02,44,1023.60
2017,01,16,02,45,1023.57
2017,01,16,02,46,1023.64
2017,01,16,02,47,1023.64
2017,01,16,02,48,1023.60
2017,01,16,02,49,1023.60
2017,01,16,02,50,1023.64
2017,01,16,02,51,1023.64
2017,01,16,02,52,1023.67
2017,01,16,02,53,1023.67
2017,01,16,02,54,1023.67
2017,01,16,02,55,1023.67
2017,01,16,02,56,1023.71
2017,01,16,02,57,1023.71
2017,01,16,02,58,1023.74
2017,01,16,02,59,1023.77
2017,01,16,03,00,1023.81
2017,01,16,03,01,1023.88
2017,01,16,03,02,1023.98
2017,01,16,03,03,1023.98
2017,01,16,03,04,1023.98
2017,01,16,03,05,1023.94
2017,01,16,03,06,1023.91
2017,01,16,03,07,1023.84
2017,01,16,03,08,1023.84
2017,01,16,03,09,1023.84
2017,01,16,03,10,1023.81
2017,01,16,03,11,1023.81
2017,01,16,03,12,1023.77
2017,01,16,03,13,1023.74
2017,01,16,03,14,1023.81
2017,01,16,03,15,1023.81
2017,01,16,03,16,1023.94
2017,01,16,03,17,1024.04
2017,01,16,03,18,1024.15
2017,01,16,03,19,1024.18
2017,01,16,03,20,1024.25
2017,01,16,03,21,1024.18
2017,01,16,03,22,1024.08
2017,01,16,03,23,1024.04
2017,01,16,03,24,1024.01
2017,01,16,03,25,1023.98
2017,01,16,03,26,1023.98
2017,01,16,03,27,1023.98
2017,01,16,03,28,1023.91
2017,01,16,03,29,1023.91
2017,01,16,03,30,1023.88
2017,01,16,03,31,1023.84
2017,01,16,03,32,1023.84
2017,01,16,03,33,1023.84
2017,01,16,03,34,1023.88
2017,01,16,03,35,1023.88
2017,01,16,03,36,1023.84
2017,01,16,03,37,1023.88
2017,01,16,03,38,1023.81
2017,01,16,03,39,1023.74
2017,01,16,03,40,1023.71
2017,01,16,03,41,1023.71
2017,01,16,03,42,1023.71
2017,01,16,03,43,1023.64
2017,01,16,03,44,1023.60
2017,01,16,03,45,1023.54
2017,01,16,03,46,1023.54
2017,01,16,03,47,1023.50
2017,01,16,03,48,1023.47
2017,01,16,03,49,1023.43
2017,01,16,03,50,1023.43
2017,01,16,03,51,1023.43
2017,01,16,03,52,1023.33
2017,01,16,03,53,1023.33
2017,01,16,03,54,1023.27
2017,01,16,03,55,1023.23
2017,01,16,03,56,1023.16
2017,01,16,03,57,1023.10
2017,01,16,03,58,1023.03
2017,01,16,03,59,1022.99
2017,01,16,04,00,1023.06
2017,01,16,04,01,1023.06
2017,01,16,04,02,1023.03
2017,01,16,04,03,1023.03
2017,01,16,04,04,1022.99
2017,01,16,04,05,1022.96
2017,01,16,04,06,1022.99
2017,01,16,04,07,1022.97
2017,01,16,04,08,1023.02
2017,01,16,04,09,1022.95
2017,01,16,04,10,1022.89
2017,01,16,04,11,1022.89
2017,01,16,04,12,1022.86
2017,01,16,04,13,1022.89
2017,01,16,04,14,1022.89
2017,01,16,04,15,1022.90
2017,01,16,04,16,1022.96
2017,01,16,04,17,1022.96
2017,01,16,04,18,1022.96
2017,01,16,04,19,1022.99
2017,01,16,04,20,1023.03
2017,01,16,04,21,1023.06
2017,01,16,04,22,1023.10
2017,01,16,04,23,1023.13
2017,01,16,04,24,1023.16
2017,01,16,04,25,1023.16
2017,01,16,04,26,1023.13
2017,01,16,04,27,1023.16
2017,01,16,04,28,1023.10
2017,01,16,04,29,1023.10
2017,01,16,04,30,1023.10
2017,01,16,04,31,1023.06
2017,01,16,04,32,1023.06
2017,01,16,04,33,1023.03
2017,01,16,04,34,1023.03
2017,01,16,04,35,1023.10
2017,01,16,04,36,1023.10
2017,01,16,04,37,1023.10
2017,01,16,04,38,1023.06
2017,01,16,04,39,1023.10
2017,01,16,04,40,1023.06
2017,01,16,04,41,1023.03
2017,01,16,04,42,1023.07
2017,01,16,04,43,1023.13
2017,01,16,04,44,1023.10
2017,01,16,04,45,1023.10
2017,01,16,04,46,1023.16
2017,01,16,04,47,1023.20
2017,01,16,04,48,1023.23
2017,01,16,04,49,1023.33
2017,01,16,04,50,1023.33
2017,01,16,04,51,1023.33
2017,01,16,04,52,1023.33
2017,01,16,04,53,1023.33
2017,01,16,04,54,1023.27
2017,01,16,04,55,1023.27
2017,01,16,04,56,1023.27
2017,01,16,04,57,1023.20
2017,01,16,04,58,1023.16
2017,01,16,04,59,1023.13
2017,01,16,05,00,1023.16
2017,01,16,05,01,1023.16
2017,01,16,05,02,1023.16
2017,01,16,05,03,1023.16
2017,01,16,05,04,1023.16
2017,01,16,05,05,1023.16
2017,01,16,05,06,1023.16
2017,01,16,05,07,1023.13
2017,01,16,05,08,1023.13
2017,01,16,05,09,1023.13
2017,01,16,05,10,1023.06
2017,01,16,05,11,1023.06
2017,01,16,05,12,1022.99
2017,01,16,05,13,1023.03
2017,01,16,05,14,1023.03
2017,01,16,05,15,1022.93
2017,01,16,05,16,1022.83
2017,01,16,05,17,1022.83
2017,01,16,05,18,1022.72
2017,01,16,05,19,1022.72
2017,01,16,05,20,1022.79
2017,01,16,05,21,1022.83
2017,01,16,05,22,1022.79
2017,01,16,05,23,1022.72
2017,01,16,05,24,1022.62
2017,01,16,05,25,1022.62
2017,01,16,05,26,1022.59
2017,01,16,05,27,1022.55
2017,01,16,05,28,1022.55
2017,01,16,05,29,1022.59
2017,01,16,05,30,1022.59
2017,01,16,05,31,1022.59
2017,01,16,05,32,1022.55
2017,01,16,05,33,1022.49
2017,01,16,05,34,1022.52
2017,01,16,05,35,1022.49
2017,01,16,05,36,1022.49
2017,01,16,05,37,1022.45
2017,01,16,05,38,1022.45
2017,01,16,05,39,1022.42
2017,01,16,05,40,1022.42
2017,01,16,05,41,1022.42
2017,01,16,05,42,1022.35
2017,01,16,05,43,1022.35
2017,01,16,05,44,1022.39
2017,01,16,05,45,1022.35
2017,01,16,05,46,1022.39
2017,01,16,05,47,1022.42
2017,01,16,05,48,1022.39
2017,01,16,05,49,1022.49
2017,01,16,05,50,1022.52
2017,01,16,05,51,1022.49
2017,01,16,05,52,1022.49
2017,01,16,05,53,1022.49
2017,01,16,05,54,1022.45
2017,01,16,05,55,1022.35
2017,01,16,05,56,1022.35
2017,01,16,05,57,1022.32
2017,01,16,05,58,1022.32
2017,01,16,05,59,1022.25
2017,01,16,06,00,1022.22
2017,01,16,06,01,1022.25
2017,01,16,06,02,1022.25
2017,01,16,06,03,1022.22
2017,01,16,06,04,1022.18
2017,01,16,06,05,1022.15
2017,01,16,06,06,1022.15
2017,01,16,06,07,1022.18
2017,01,16,06,08,1022.11
2017,01,16,06,09,1022.08
2017,01,16,06,10,1022.05
2017,01,16,06,11,1022.05
2017,01,16,06,12,1022.01
2017,01,16,06,13,1022.01
2017,01,16,06,14,1022.05
2017,01,16,06,15,1022.05
2017,01,16,06,16,1022.08
2017,01,16,06,17,1022.05
2017,01,16,06,18,1022.05
2017,01,16,06,19,1022.05
2017,01,16,06,20,1022.05
2017,01,16,06,21,1022.01
2017,01,16,06,22,1022.08
2017,01,16,06,23,1022.01
2017,01,16,06,24,1021.98
2017,01,16,06,25,1021.98
2017,01,16,06,26,1021.91
2017,01,16,06,27,1021.91
2017,01,16,06,28,1021.91
2017,01,16,06,29,1021.94
2017,01,16,06,30,1021.98
2017,01,16,06,31,1021.94
2017,01,16,06,32,1021.91
2017,01,16,06,33,1021.84
2017,01,16,06,34,1021.84
2017,01,16,06,35,1021.81
2017,01,16,06,36,1021.84
2017,01,16,06,37,1021.81
2017,01,16,06,38,1021.81
2017,01,16,06,39,1021.71
2017,01,16,06,40,1021.67
2017,01,16,06,41,1021.64
2017,01,16,06,42,1021.54
2017,01,16,06,43,1021.50
2017,01,16,06,44,1021.54
2017,01,16,06,45,1021.50
2017,01,16,06,46,1021.50
2017,01,16,06,47,1021.54
2017,01,16,06,48,1021.50
2017,01,16,06,49,1021.54
2017,01,16,06,50,1021.57
2017,01,16,06,51,1021.61
2017,01,16,06,52,1021.61
2017,01,16,06,53,1021.67
2017,01,16,06,54,1021.71
2017,01,16,06,55,1021.67
2017,01,16,06,56,1021.67
2017,01,16,06,57,1021.67
2017,01,16,06,58,1021.71
2017,01,16,06,59,1021.71
2017,01,16,07,00,1021.71
2017,01,16,07,01,1021.64
2017,01,16,07,02,1021.57
2017,01,16,07,03,1021.64
2017,01,16,07,04,1021.64
2017,01,16,07,05,1021.57
2017,01,16,07,06,1021.50
2017,01,16,07,07,1021.37
2017,01,16,07,08,1021.44
2017,01,16,07,09,1021.40
2017,01,16,07,10,1021.34
2017,01,16,07,11,1021.34
2017,01,16,07,12,1021.34
2017,01,16,07,13,1021.34
2017,01,16,07,14,1021.34
2017,01,16,07,15,1021.37
2017,01,16,07,16,1021.34
2017,01,16,07,17,1021.30
2017,01,16,07,18,1021.30
2017,01,16,07,19,1021.23
2017,01,16,07,20,1021.23
2017,01,16,07,21,1021.20
2017,01,16,07,22,1021.17
2017,01,16,07,23,1021.10
2017,01,16,07,24,1021.00
2017,01,16,07,25,1021.00
2017,01,16,07,26,1021.03
2017,01,16,07,27,1020.96
2017,01,16,07,28,1020.96
2017,01,16,07,29,1020.93
2017,01,16,07,30,1020.93
2017,01,16,07,31,1020.93
2017,01,16,07,32,1020.93
2017,01,16,07,33,1020.89
2017,01,16,07,34,1020.86
2017,01,16,07,35,1020.86
2017,01,16,07,36,1020.86
2017,01,16,07,37,1020.93
2017,01,16,07,38,1020.93
2017,01,16,07,39,1020.93
2017,01,16,07,40,1020.83
2017,01,16,07,41,1020.83
2017,01,16,07,42,1020.79
2017,01,16,07,43,1020.83
2017,01,16,07,44,1020.86
2017,01,16,07,45,1020.86
2017,01,16,07,46,1020.83
2017,01,16,07,47,1020.83
2017,01,16,07,48,1020.83
2017,01,16,07,49,1020.83
2017,01,16,07,50,1020.83
2017,01,16,07,51,1020.79
2017,01,16,07,52,1020.83
2017,01,16,07,53,1020.76
2017,01,16,07,54,1020.79
2017,01,16,07,55,1020.73
2017,01,16,07,56,1020.76
2017,01,16,07,57,1020.73
2017,01,16,07,58,1020.66
2017,01,16,07,59,1020.69
2017,01,16,08,00,1020.76
2017,01,16,08,01,1020.73
2017,01,16,08,02,1020.69
2017,01,16,08,03,1020.62
2017,01,16,08,04,1020.52
2017,01,16,08,05,1020.52
2017,01,16,08,06,1020.39
2017,01,16,08,07,1020.39
2017,01,16,08,08,1020.39
2017,01,16,08,09,1020.39
2017,01,16,08,10,1020.39
2017,01,16,08,11,1020.45
2017,01,16,08,12,1020.45
2017,01,16,08,13,1020.49
2017,01,16,08,14,1020.52
2017,01,16,08,15,1020.49
2017,01,16,08,16,1020.52
2017,01,16,08,17,1020.49
2017,01,16,08,18,1020.52
2017,01,16,08,19,1020.52
2017,01,16,08,20,1020.56
2017,01,16,08,21,1020.59
2017,01,16,08,22,1020.59
2017,01,16,08,23,1020.56
2017,01,16,08,24,1020.52
2017,01,16,08,25,1020.62
2017,01,16,08,26,1020.59
2017,01,16,08,27,1020.62
2017,01,16,08,28,1020.69
2017,01,16,08,29,1020.66
2017,01,16,08,30,1020.66
2017,01,16,08,31,1020.66
2017,01,16,08,32,1020.66
2017,01,16,08,33,1020.66
2017,01,16,08,34,1020.59
2017,01,16,08,35,1020.56
2017,01,16,08,36,1020.59
2017,01,16,08,37,1020.59
2017,01,16,08,38,1020.56
2017,01,16,08,39,1020.62
2017,01,16,08,40,1020.66
2017,01,16,08,41,1020.66
2017,01,16,08,42,1020.59
2017,01,16,08,43,1020.59
2017,01,16,08,44,1020.69
2017,01,16,08,45,1020.62
2017,01,16,08,46,1020.59
2017,01,16,08,47,1020.59
2017,01,16,08,48,1020.56
2017,01,16,08,49,1020.45
2017,01,16,08,50,1020.42
2017,01,16,08,51,1020.45
2017,01,16,08,52,1020.49
2017,01,16,08,53,1020.42
2017,01,16,08,54,1020.42
2017,01,16,08,55,1020.39
2017,01,16,08,56,1020.29
2017,01,16,08,57,1020.25
2017,01,16,08,58,1020.25
2017,01,16,08,59,1020.22
2017,01,16,09,00,1020.18
2017,01,16,09,01,1020.22
2017,01,16,09,02,1020.22
2017,01,16,09,03,1020.25
2017,01,16,09,04,1020.29
2017,01,16,09,05,1020.32
2017,01,16,09,06,1020.32
2017,01,16,09,07,1020.22
2017,01,16,09,08,1020.22
2017,01,16,09,09,1020.15
2017,01,16,09,10,1020.05
2017,01,16,09,11,1020.05
2017,01,16,09,12,1020.12
2017,01,16,09,13,1020.22
2017,01,16,09,14,1020.22
2017,01,16,09,15,1020.18
2017,01,16,09,16,1020.18
2017,01,16,09,17,1020.12
2017,01,16,09,18,1020.05
2017,01,16,09,19,1020.01
2017,01,16,09,20,1020.01
2017,01,16,09,21,1020.08
2017,01,16,09,22,1020.05
2017,01,16,09,23,1020.12
2017,01,16,09,24,1020.15
2017,01,16,09,25,1020.18
2017,01,16,09,26,1020.18
2017,01,16,09,27,1020.25
2017,01,16,09,28,1020.18
2017,01,16,09,29,1020.12
2017,01,16,09,30,1020.05
2017,01,16,09,31,1019.95
2017,01,16,09,32,1019.95
2017,01,16,09,33,1019.95
2017,01,16,09,34,1019.95
2017,01,16,09,35,1019.91
2017,01,16,09,36,1019.91
2017,01,16,09,37,1019.88
2017,01,16,09,38,1019.85
2017,01,16,09,39,1019.91
2017,01,16,09,40,1019.98
2017,01,16,09,41,1020.01
2017,01,16,09,42,1020.08
2017,01,16,09,43,1020.12
2017,01,16,09,44,1020.12
2017,01,16,09,45,1020.01
2017,01,16,09,46,1020.01
2017,01,16,09,47,1020.01
2017,01,16,09,48,1020.01
2017,01,16,09,49,1019.95
2017,01,16,09,50,1019.91
2017,01,16,09,51,1019.88
2017,01,16,09,52,1019.88
2017,01,16,09,53,1019.85
2017,01,16,09,54,1019.85
2017,01,16,09,55,1019.85
2017,01,16,09,56,1019.81
2017,01,16,09,57,1019.81
2017,01,16,09,58,1019.81
2017,01,16,09,59,1019.78
2017,01,16,10,00,1019.85
2017,01,16,10,01,1019.81
2017,01,16,10,02,1019.81
2017,01,16,10,03,1019.74
2017,01,16,10,04,1019.71
2017,01,16,10,05,1019.74
2017,01,16,10,06,1019.78
2017,01,16,10,07,1019.81
2017,01,16,10,08,1019.81
2017,01,16,10,09,1019.81
2017,01,16,10,10,1019.91
2017,01,16,10,11,1019.85
2017,01,16,10,12,1019.85
2017,01,16,10,13,1019.81
2017,01,16,10,14,1019.78
2017,01,16,10,15,1019.78
2017,01,16,10,16,1019.81
2017,01,16,10,17,1019.78
2017,01,16,10,18,1019.78
2017,01,16,10,19,1019.68
2017,01,16,10,20,1019.64
2017,01,16,10,21,1019.57
2017,01,16,10,22,1019.57
2017,01,16,10,23,1019.61
2017,01,16,10,24,1019.61
2017,01,16,10,25,1019.57
2017,01,16,10,26,1019.54
2017,01,16,10,27,1019.51
2017,01,16,10,28,1019.51
2017,01,16,10,29,1019.40
2017,01,16,10,30,1019.44
2017,01,16,10,31,1019.34
2017,01,16,10,32,1019.37
2017,01,16,10,33,1019.44
2017,01,16,10,34,1019.44
2017,01,16,10,35,1019.51
2017,01,16,10,36,1019.54
2017,01,16,10,37,1019.51
2017,01,16,10,38,1019.47
2017,01,16,10,39,1019.51
2017,01,16,10,40,1019.44
2017,01,16,10,41,1019.44
2017,01,16,10,42,1019.47
2017,01,16,10,43,1019.47
2017,01,16,10,44,1019.43
2017,01,16,10,45,1019.30
2017,01,16,10,46,1019.30
2017,01,16,10,47,1019.27
2017,01,16,10,48,1019.24
2017,01,16,10,49,1019.24
2017,01,16,10,50,1019.17
2017,01,16,10,51,1019.13
2017,01,16,10,52,1019.03
2017,01,16,10,53,1019.03
2017,01,16,10,54,1019.03
2017,01,16,10,55,1019.00
2017,01,16,10,56,1018.96
2017,01,16,10,57,1018.90
2017,01,16,10,58,1018.86
2017,01,16,10,59,1018.80
2017,01,16,11,00,1018.76
2017,01,16,11,01,1018.69
2017,01,16,11,02,1018.63
2017,01,16,11,03,1018.66
2017,01,16,11,04,1018.73
2017,01,16,11,05,1018.66
2017,01,16,11,06,1018.59
2017,01,16,11,07,1018.56
2017,01,16,11,08,1018.56
2017,01,16,11,09,1018.52
2017,01,16,11,10,1018.56
2017,01,16,11,11,1018.59
2017,01,16,11,12,1018.52
2017,01,16,11,13,1018.56
2017,01,16,11,14,1018.49
2017,01,16,11,15,1018.56
2017,01,16,11,16,1018.46
2017,01,16,11,17,1018.39
2017,01,16,11,18,1018.32
2017,01,16,11,19,1018.32
2017,01,16,11,20,1018.22
2017,01,16,11,21,1018.32
2017,01,16,11,22,1018.22
2017,01,16,11,23,1018.22
2017,01,16,11,24,1018.29
2017,01,16,11,25,1018.22
2017,01,16,11,26,1018.22
2017,01,16,11,27,1018.19
2017,01,16,11,28,1018.22
2017,01,16,11,29,1018.29
2017,01,16,11,30,1018.19
2017,01,16,11,31,1018.19
2017,01,16,11,32,1018.12
2017,01,16,11,33,1018.12
2017,01,16,11,34,1018.08
2017,01,16,11,35,1018.12
2017,01,16,11,36,1018.15
2017,01,16,11,37,1018.08
2017,01,16,11,38,1018.08
2017,01,16,11,39,1018.05
2017,01,16,11,40,1018.05
2017,01,16,11,41,1018.02
2017,01,16,11,42,1017.98
2017,01,16,11,43,1017.98
2017,01,16,11,44,1017.95
2017,01,16,11,45,1017.98
2017,01,16,11,46,1017.95
2017,01,16,11,47,1017.98
2017,01,16,11,48,1017.91
2017,01,16,11,49,1017.95
2017,01,16,11,50,1017.91
2017,01,16,11,51,1017.91
2017,01,16,11,52,1017.95
2017,01,16,11,53,1017.88
2017,01,16,11,54,1017.81
2017,01,16,11,55,1017.78
2017,01,16,11,56,1017.75
2017,01,16,11,57,1017.68
2017,01,16,11,58,1017.61
2017,01,16,11,59,1017.64
2017,01,16,12,00,1017.58
2017,01,16,12,01,1017.64
2017,01,16,12,02,1017.61
2017,01,16,12,03,1017.58
2017,01,16,12,04,1017.61
2017,01,16,12,05,1017.61
2017,01,16,12,06,1017.58
2017,01,16,12,07,1017.54
2017,01,16,12,08,1017.58
2017,01,16,12,09,1017.51
2017,01,16,12,10,1017.51
2017,01,16,12,11,1017.41
2017,01,16,12,12,1017.34
2017,01,16,12,13,1017.41
2017,01,16,12,14,1017.34
2017,01,16,12,15,1017.34
2017,01,16,12,16,1017.31
2017,01,16,12,17,1017.24
2017,01,16,12,18,1017.17
2017,01,16,12,19,1017.14
2017,01,16,12,20,1017.14
2017,01,16,12,21,1017.06
2017,01,16,12,22,1016.93
2017,01,16,12,23,1016.90
2017,01,16,12,24,1016.83
2017,01,16,12,25,1016.76
2017,01,16,12,26,1016.66
2017,01,16,12,27,1016.59
2017,01,16,12,28,1016.66
2017,01,16,12,29,1016.66
2017,01,16,12,30,1016.70
2017,01,16,12,31,1016.73
2017,01,16,12,32,1016.70
2017,01,16,12,33,1016.56
2017,01,16,12,34,1016.53
2017,01,16,12,35,1016.42
2017,01,16,12,36,1016.39
2017,01,16,12,37,1016.36
2017,01,16,12,38,1016.32
2017,01,16,12,39,1016.32
2017,01,16,12,40,1016.29
2017,01,16,12,41,1016.32
2017,01,16,12,42,1016.22
2017,01,16,12,43,1016.22
2017,01,16,12,44,1016.19
2017,01,16,12,45,1016.12
2017,01,16,12,46,1016.05
2017,01,16,12,47,1016.05
2017,01,16,12,48,1016.02
2017,01,16,12,49,1016.05
2017,01,16,12,50,1016.05
2017,01,16,12,51,1015.95
2017,01,16,12,52,1015.95
2017,01,16,12,53,1015.92
2017,01,16,12,54,1015.85
2017,01,16,12,55,1015.88
2017,01,16,12,56,1015.92
2017,01,16,12,57,1015.92
2017,01,16,12,58,1015.88
2017,01,16,12,59,1015.95
2017,01,16,13,00,1015.85
2017,01,16,13,01,1015.82
2017,01,16,13,02,1015.75
2017,01,16,13,03,1015.71
2017,01,16,13,04,1015.58
2017,01,16,13,05,1015.58
2017,01,16,13,06,1015.61
2017,01,16,13,07,1015.54
2017,01,16,13,08,1015.58
2017,01,16,13,09,1015.44
2017,01,16,13,10,1015.34
2017,01,16,13,11,1015.34
2017,01,16,13,12,1015.27
2017,01,16,13,13,1015.27
2017,01,16,13,14,1015.21
2017,01,16,13,15,1015.24
2017,01,16,13,16,1015.24
2017,01,16,13,17,1015.21
2017,01,16,13,18,1015.17
2017,01,16,13,19,1015.07
2017,01,16,13,20,1015.04
2017,01,16,13,21,1015.07
2017,01,16,13,22,1015.07
2017,01,16,13,23,1015.00
2017,01,16,13,24,1014.87
2017,01,16,13,25,1014.97
2017,01,16,13,26,1014.90
2017,01,16,13,27,1014.90
2017,01,16,13,28,1014.80
2017,01,16,13,29,1014.83
2017,01,16,13,30,1014.80
2017,01,16,13,31,1014.77
2017,01,16,13,32,1014.70
2017,01,16,13,33,1014.70
2017,01,16,13,34,1014.63
2017,01,16,13,35,1014.66
2017,01,16,13,36,1014.63
2017,01,16,13,37,1014.60
2017,01,16,13,38,1014.60
2017,01,16,13,39,1014.49
2017,01,16,13,40,1014.39
2017,01,16,13,41,1014.39
2017,01,16,13,42,1014.39
2017,01,16,13,43,1014.36
2017,01,16,13,44,1014.36
2017,01,16,13,45,1014.33
2017,01,16,13,46,1014.26
2017,01,16,13,47,1014.22
2017,01,16,13,48,1014.19
2017,01,16,13,49,1014.12
2017,01,16,13,50,1014.12
2017,01,16,13,51,1014.09
2017,01,16,13,52,1014.02
2017,01,16,13,53,1014.02
2017,01,16,13,54,1014.02
2017,01,16,13,55,1013.99
2017,01,16,13,56,1013.92
2017,01,16,13,57,1013.92
2017,01,16,13,58,1013.89
2017,01,16,13,59,1013.95
2017,01,16,14,00,1013.95
2017,01,16,14,01,1013.92
2017,01,16,14,02,1013.85
2017,01,16,14,03,1013.78
2017,01,16,14,04,1013.78
2017,01,16,14,05,1013.78
2017,01,16,14,06,1013.82
2017,01,16,14,07,1013.85
2017,01,16,14,08,1013.78
2017,01,16,14,09,1013.75
2017,01,16,14,10,1013.82
2017,01,16,14,11,1013.78
2017,01,16,14,12,1013.82
2017,01,16,14,13,1013.92
2017,01,16,14,14,1013.85
2017,01,16,14,15,1013.85
2017,01,16,14,16,1013.85
2017,01,16,14,17,1013.95
2017,01,16,14,18,1013.85
2017,01,16,14,19,1013.78
2017,01,16,14,20,1013.82
2017,01,16,14,21,1013.75
2017,01,16,14,22,1013.68
2017,01,16,14,23,1013.58
2017,01,16,14,24,1013.61
2017,01,16,14,25,1013.58
2017,01,16,14,26,1013.58
2017,01,16,14,27,1013.44
2017,01,16,14,28,1013.55
2017,01,16,14,29,1013.58
2017,01,16,14,30,1013.58
2017,01,16,14,31,1013.55
2017,01,16,14,32,1013.55
2017,01,16,14,33,1013.51
2017,01,16,14,34,1013.48
2017,01,16,14,35,1013.51
2017,01,16,14,36,1013.48
2017,01,16,14,37,1013.48
2017,01,16,14,38,1013.48
2017,01,16,14,39,1013.48
2017,01,16,14,40,1013.51
2017,01,16,14,41,1013.51
2017,01,16,14,42,1013.55
2017,01,16,14,43,1013.55
2017,01,16,14,44,1013.55
2017,01,16,14,45,1013.61
2017,01,16,14,46,1013.65
2017,01,16,14,47,1013.55
2017,01,16,14,48,1013.58
2017,01,16,14,49,1013.55
2017,01,16,14,50,1013.55
2017,01,16,14,51,1013.55
2017,01,16,14,52,1013.58
2017,01,16,14,53,1013.58
2017,01,16,14,54,1013.58
2017,01,16,14,55,1013.58
2017,01,16,14,56,1013.58
2017,01,16,14,57,1013.55
2017,01,16,14,58,1013.44
2017,01,16,14,59,1013.48
2017,01,16,15,00,1013.51
2017,01,16,15,01,1013.41
2017,01,16,15,02,1013.51
2017,01,16,15,03,1013.51
2017,01,16,15,04,1013.44
2017,01,16,15,05,1013.41
2017,01,16,15,06,1013.44
2017,01,16,15,07,1013.34
2017,01,16,15,08,1013.34
2017,01,16,15,09,1013.28
2017,01,16,15,10,1013.24
2017,01,16,15,11,1013.28
2017,01,16,15,12,1013.31
2017,01,16,15,13,1013.24
2017,01,16,15,14,1013.34
2017,01,16,15,15,1013.28
2017,01,16,15,16,1013.28
2017,01,16,15,17,1013.38
2017,01,16,15,18,1013.28
2017,01,16,15,19,1013.34
2017,01,16,15,20,1013.34
2017,01,16,15,21,1013.38
2017,01,16,15,22,1013.31
2017,01,16,15,23,1013.34
2017,01,16,15,24,1013.31
2017,01,16,15,25,1013.31
2017,01,16,15,26,1013.28
2017,01,16,15,27,1013.28
2017,01,16,15,28,1013.17
2017,01,16,15,29,1013.21
2017,01,16,15,30,1013.21
2017,01,16,15,31,1013.14
2017,01,16,15,32,1013.11
2017,01,16,15,33,1013.07
2017,01,16,15,34,1013.07
2017,01,16,15,35,1013.04
2017,01,16,15,36,1013.00
2017,01,16,15,37,1012.97
2017,01,16,15,38,1013.00
2017,01,16,15,39,1012.94
2017,01,16,15,40,1012.90
2017,01,16,15,41,1012.80
2017,01,16,15,42,1012.80
2017,01,16,15,43,1012.80
2017,01,16,15,44,1012.73
2017,01,16,15,45,1012.80
2017,01,16,15,46,1012.84
2017,01,16,15,47,1012.97
2017,01,16,15,48,1012.97
2017,01,16,15,49,1012.90
2017,01,16,15,50,1012.94
2017,01,16,15,51,1012.90
2017,01,16,15,52,1012.87
2017,01,16,15,53,1012.97
2017,01,16,15,54,1013.00
2017,01,16,15,55,1012.94
2017,01,16,15,56,1012.97